Time,TemperatureF,DewpointF,PressureIn,WindDirection,WindDirectionDegrees,WindSpeedMPH,WindSpeedGustMPH,Humidity,HourlyPrecipIn,Conditions,Clouds,dailyrainin,SoftwareType,DateUTC
2013-04-11 00:00:00,45.9,44.8,29.82,East,88,0.0,3.0,96,0.01,,,0.33,VWS V14.01,2013-04-11 04:00:00,
2013-04-11 00:05:00,45.9,44.8,29.82,East,88,1.0,1.0,96,0.01,,,0.00,VWS V14.01,2013-04-11 04:05:00,
2013-04-11 00:10:00,45.9,44.8,29.82,East,88,0.0,2.0,96,0.01,,,0.00,VWS V14.01,2013-04-11 04:10:00,
2013-04-11 00:15:00,46.0,44.9,29.82,East,88,0.0,2.0,96,0.02,,,0.01,VWS V14.01,2013-04-11 04:15:00,
2013-04-11 00:20:00,46.1,45.0,29.82,East,88,0.0,2.0,96,0.02,,,0.01,VWS V14.01,2013-04-11 04:20:00,
2013-04-11 00:25:00,46.1,45.0,29.83,East,88,0.0,2.0,96,0.02,,,0.01,VWS V14.01,2013-04-11 04:25:00,
2013-04-11 00:30:00,46.2,45.1,29.82,East,88,1.0,3.0,96,0.03,,,0.02,VWS V14.01,2013-04-11 04:30:00,
2013-04-11 00:35:00,46.1,45.0,29.81,East,88,1.0,3.0,96,0.04,,,0.03,VWS V14.01,2013-04-11 04:35:00,
2013-04-11 00:40:00,46.1,45.0,29.82,East,88,1.0,3.0,96,0.05,,,0.04,VWS V14.01,2013-04-11 04:40:00,
2013-04-11 00:45:00,46.1,45.0,29.81,East,96,2.0,3.0,96,0.05,,,0.04,VWS V14.01,2013-04-11 04:45:00,
2013-04-11 00:50:00,46.0,44.9,29.79,ESE,113,4.0,5.0,96,0.05,,,0.04,VWS V14.01,2013-04-11 04:50:00,
2013-04-11 00:55:00,46.0,44.9,29.79,ESE,119,4.0,5.0,96,0.05,,,0.04,VWS V14.01,2013-04-11 04:55:00,
2013-04-11 01:00:00,45.9,44.8,29.78,ESE,113,4.0,7.0,96,0.05,,,0.04,VWS V14.01,2013-04-11 05:00:00,
2013-04-11 01:05:00,45.9,44.8,29.79,ESE,113,2.0,4.0,96,0.04,,,0.04,VWS V14.01,2013-04-11 05:05:00,
2013-04-11 01:10:00,45.9,44.8,29.80,SE,140,0.0,4.0,96,0.04,,,0.04,VWS V14.01,2013-04-11 05:10:00,
2013-04-11 01:15:00,46.0,44.9,29.79,ESE,112,3.0,4.0,96,0.04,,,0.04,VWS V14.01,2013-04-11 05:15:00,
2013-04-11 01:20:00,45.9,44.8,29.79,SE,127,3.0,4.0,96,0.04,,,0.04,VWS V14.01,2013-04-11 05:20:00,
2013-04-11 01:25:00,45.8,44.7,29.79,SSE,156,2.0,7.0,96,0.04,,,0.04,VWS V14.01,2013-04-11 05:25:00,
2013-04-11 01:30:00,45.8,44.7,29.80,East,101,0.0,7.0,96,0.04,,,0.04,VWS V14.01,2013-04-11 05:30:00,
2013-04-11 01:35:00,45.7,44.6,29.80,East,101,0.0,2.0,96,0.01,,,0.04,VWS V14.01,2013-04-11 05:35:00,
2013-04-11 01:40:00,45.7,44.6,29.79,ESE,113,0.0,4.0,96,0.02,,,0.05,VWS V14.01,2013-04-11 05:40:00,
2013-04-11 01:45:00,45.8,45.0,29.79,ESE,113,1.0,4.0,97,0.02,,,0.05,VWS V14.01,2013-04-11 05:45:00,
2013-04-11 01:50:00,45.8,45.0,29.78,ESE,107,2.0,4.0,97,0.02,,,0.05,VWS V14.01,2013-04-11 05:50:00,
2013-04-11 01:55:00,45.8,44.7,29.77,ESE,112,3.0,5.0,96,0.02,,,0.05,VWS V14.01,2013-04-11 05:55:00,
2013-04-11 02:00:00,45.7,44.6,29.76,ESE,112,1.0,5.0,96,0.02,,,0.05,VWS V14.01,2013-04-11 06:00:00,
2013-04-11 02:05:00,45.6,44.5,29.77,SSE,165,0.0,2.0,96,0.01,,,0.05,VWS V14.01,2013-04-11 06:05:00,
2013-04-11 02:10:00,45.6,44.5,29.76,SSE,165,1.0,3.0,96,0.01,,,0.05,VWS V14.01,2013-04-11 06:10:00,
2013-04-11 02:15:00,45.6,44.5,29.75,East,98,2.0,3.0,96,0.01,,,0.05,VWS V14.01,2013-04-11 06:15:00,
2013-04-11 02:20:00,45.5,44.4,29.75,ESE,102,0.0,5.0,96,0.01,,,0.05,VWS V14.01,2013-04-11 06:20:00,
2013-04-11 02:25:00,45.5,44.4,29.75,ESE,102,1.0,5.0,96,0.01,,,0.05,VWS V14.01,2013-04-11 06:25:00,
2013-04-11 02:30:00,45.5,44.4,29.75,ESE,102,0.0,5.0,96,0.01,,,0.05,VWS V14.01,2013-04-11 06:30:00,
2013-04-11 02:35:00,45.5,44.4,29.76,ESE,102,0.0,1.0,96,0.01,,,0.05,VWS V14.01,2013-04-11 06:35:00,
2013-04-11 02:40:00,45.5,44.4,29.75,ESE,102,0.0,1.0,96,0.01,,,0.05,VWS V14.01,2013-04-11 06:40:00,
2013-04-11 02:45:00,45.5,44.4,29.75,ESE,102,0.0,1.0,96,0.01,,,0.05,VWS V14.01,2013-04-11 06:45:00,
2013-04-11 02:50:00,45.6,44.5,29.75,ESE,102,0.0,1.0,96,0.01,,,0.05,VWS V14.01,2013-04-11 06:50:00,
2013-04-11 02:55:00,45.6,44.5,29.75,ESE,102,0.0,1.0,96,0.01,,,0.05,VWS V14.01,2013-04-11 06:55:00,
2013-04-11 03:00:00,45.7,44.6,29.75,ESE,102,0.0,1.0,96,0.01,,,0.05,VWS V14.01,2013-04-11 07:00:00,
2013-04-11 03:05:00,45.7,44.6,29.75,ESE,102,0.0,0.0,96,0.00,,,0.05,VWS V14.01,2013-04-11 07:05:00,
2013-04-11 03:10:00,45.7,44.6,29.75,ESE,102,0.0,0.0,96,0.00,,,0.05,VWS V14.01,2013-04-11 07:10:00,
2013-04-11 03:15:00,45.7,44.6,29.75,ESE,102,0.0,0.0,96,0.00,,,0.05,VWS V14.01,2013-04-11 07:15:00,
2013-04-11 03:20:00,45.8,44.7,29.75,ESE,102,0.0,0.0,96,0.00,,,0.05,VWS V14.01,2013-04-11 07:20:00,
2013-04-11 03:25:00,45.8,44.7,29.75,ESE,102,0.0,0.0,96,0.00,,,0.05,VWS V14.01,2013-04-11 07:25:00,
2013-04-11 03:30:00,45.8,44.7,29.75,ESE,102,0.0,0.0,96,0.00,,,0.05,VWS V14.01,2013-04-11 07:30:00,
2013-04-11 03:35:00,45.8,44.7,29.75,ESE,102,0.0,0.0,96,0.00,,,0.05,VWS V14.01,2013-04-11 07:35:00,
2013-04-11 03:40:00,45.8,44.7,29.75,ESE,102,0.0,0.0,96,0.00,,,0.05,VWS V14.01,2013-04-11 07:40:00,
2013-04-11 03:45:00,45.7,44.6,29.75,ESE,102,0.0,0.0,96,0.00,,,0.05,VWS V14.01,2013-04-11 07:45:00,
2013-04-11 03:50:00,45.7,44.6,29.75,ESE,102,0.0,1.0,96,0.00,,,0.05,VWS V14.01,2013-04-11 07:50:00,
2013-04-11 04:00:00,45.8,45.0,29.76,ESE,112,0.0,1.0,97,0.00,,,0.05,VWS V14.01,2013-04-11 08:00:00,
2013-04-11 04:30:00,45.8,44.7,29.74,ESE,112,0.0,1.0,96,0.00,,,0.05,VWS V14.01,2013-04-11 08:30:00,
2013-04-11 05:00:00,46.1,45.3,29.74,NNE,22,0.0,5.0,97,0.00,,,0.05,VWS V14.01,2013-04-11 09:00:00,
2013-04-11 05:30:00,45.6,44.8,29.75,NNW,338,2.0,9.0,97,0.00,,,0.05,VWS V14.01,2013-04-11 09:30:00,
2013-04-11 06:00:00,45.0,44.2,29.78,NNW,338,2.0,5.0,97,0.00,,,0.05,VWS V14.01,2013-04-11 10:00:00,
2013-04-11 06:30:00,44.7,43.9,29.80,North,0,1.0,6.0,97,0.00,,,0.05,VWS V14.01,2013-04-11 10:30:00,
2013-04-11 07:00:00,44.5,43.7,29.84,NNW,338,2.0,6.0,97,0.00,,,0.05,VWS V14.01,2013-04-11 11:00:00,
2013-04-11 07:30:00,44.6,43.8,29.85,NNW,338,2.0,7.0,97,0.00,,,0.05,VWS V14.01,2013-04-11 11:30:00,
2013-04-11 08:00:00,45.2,44.7,29.86,North,0,3.0,9.0,98,0.00,,,0.05,VWS V14.01,2013-04-11 12:00:00,
2013-04-11 08:30:00,45.6,44.8,29.87,NNW,338,3.0,14.0,97,0.00,,,0.05,VWS V14.01,2013-04-11 12:30:00,
2013-04-11 09:00:00,45.5,44.7,29.87,North,0,3.0,9.0,97,0.00,,,0.05,VWS V14.01,2013-04-11 13:00:00,
2013-04-11 09:30:00,46.1,45.0,29.89,NNE,22,4.0,11.0,96,0.00,,,0.05,VWS V14.01,2013-04-11 13:30:00,
2013-04-11 10:00:00,45.8,44.5,29.91,North,0,4.0,12.0,95,0.00,,,0.05,VWS V14.01,2013-04-11 14:00:00,
2013-04-11 10:30:00,45.6,44.2,29.92,NNE,22,3.0,10.0,95,0.00,,,0.05,VWS V14.01,2013-04-11 14:30:00,
2013-04-11 11:00:00,48.3,44.9,29.91,NNE,22,4.0,13.0,88,0.00,,,0.05,VWS V14.01,2013-04-11 15:00:00,
2013-04-11 11:30:00,47.8,43.2,29.94,NNE,22,4.0,14.0,84,0.00,,,0.05,VWS V14.01,2013-04-11 15:30:00,
2013-04-11 12:00:00,48.1,42.5,29.94,NE,45,4.0,13.0,81,0.00,,,0.05,VWS V14.01,2013-04-11 16:00:00,
2013-04-11 12:30:00,47.3,42.1,29.94,NE,45,4.0,11.0,82,0.00,,,0.05,VWS V14.01,2013-04-11 16:30:00,
2013-04-11 13:00:00,47.6,41.8,29.95,NE,45,4.0,11.0,80,0.00,,,0.05,VWS V14.01,2013-04-11 17:00:00,
2013-04-11 13:30:00,49.4,41.5,29.95,ENE,68,4.0,12.0,74,0.00,,,0.05,VWS V14.01,2013-04-11 17:30:00,
2013-04-11 14:00:00,50.5,41.1,29.96,NNE,22,4.0,11.0,70,0.00,,,0.05,VWS V14.01,2013-04-11 18:00:00,
2013-04-11 14:30:00,51.3,39.5,29.95,NE,45,5.0,15.0,64,0.00,,,0.05,VWS V14.01,2013-04-11 18:30:00,
2013-04-11 15:00:00,50.5,40.0,29.95,NE,45,5.0,15.0,67,0.00,,,0.05,VWS V14.01,2013-04-11 19:00:00,
2013-04-11 15:30:00,51.1,39.8,29.95,East,90,3.0,9.0,65,0.00,,,0.05,VWS V14.01,2013-04-11 19:30:00,
2013-04-11 16:00:00,49.5,37.4,29.95,ENE,68,4.0,11.0,63,0.00,,,0.05,VWS V14.01,2013-04-11 20:00:00,
2013-04-11 16:30:00,48.7,37.9,29.95,NNE,22,4.0,11.0,66,0.00,,,0.05,VWS V14.01,2013-04-11 20:30:00,
2013-04-11 17:00:00,48.7,38.2,29.97,NE,45,3.0,8.0,67,0.00,,,0.05,VWS V14.01,2013-04-11 21:00:00,
2013-04-11 17:30:00,48.5,36.1,29.97,NE,45,2.0,7.0,62,0.00,,,0.05,VWS V14.01,2013-04-11 21:30:00,
2013-04-11 18:00:00,47.2,39.0,29.98,East,90,3.0,8.0,73,0.00,,,0.05,VWS V14.01,2013-04-11 22:00:00,
2013-04-11 18:30:00,46.9,39.4,29.99,East,90,3.0,8.0,75,0.00,,,0.05,VWS V14.01,2013-04-11 22:30:00,
2013-04-11 19:00:00,46.6,39.8,29.99,NE,45,2.0,6.0,77,0.00,,,0.05,VWS V14.01,2013-04-11 23:00:00,
2013-04-11 19:30:00,45.8,37.0,29.99,NE,45,2.0,8.0,71,0.00,,,0.05,VWS V14.01,2013-04-11 23:30:00,
2013-04-11 20:00:00,45.4,36.9,29.99,NE,45,2.0,8.0,72,0.00,,,0.05,VWS V14.01,2013-04-12 00:00:00,
2013-04-11 20:30:00,45.0,38.2,30.01,ENE,68,2.0,9.0,77,0.00,,,0.05,VWS V14.01,2013-04-12 00:30:00,
2013-04-11 21:00:00,44.8,38.0,30.02,East,90,2.0,9.0,77,0.00,,,0.05,VWS V14.01,2013-04-12 01:00:00,
2013-04-11 21:30:00,45.0,37.6,30.03,East,90,1.0,5.0,75,0.00,,,0.05,VWS V14.01,2013-04-12 01:30:00,
2013-04-11 22:00:00,45.1,37.0,30.05,East,90,1.0,4.0,73,0.00,,,0.05,VWS V14.01,2013-04-12 02:00:00,
2013-04-11 22:30:00,45.0,36.9,30.05,NE,45,1.0,3.0,73,0.00,,,0.05,VWS V14.01,2013-04-12 02:30:00,
2013-04-11 23:00:00,44.9,36.1,30.05,NE,45,1.0,4.0,71,0.00,,,0.05,VWS V14.01,2013-04-12 03:00:00,
2013-04-11 23:30:00,44.9,35.7,30.06,East,90,1.0,6.0,70,0.00,,,0.05,VWS V14.01,2013-04-12 03:30:00,